THY6QY LTCK-LTFM

Flight info

Callsign THY6QY
Flight time N/A
Altitude 36000
Route BAYIR UT888 SIV UL615 TIMOP UT97 KANQO
Aircraft A321/M-SDE3FGHIRWY/LB1

Departure

Time 2026-04-28 15:59
Airport Muş Airport (LTCK)

Arrival

Time N/A
Airport İstanbul Airport (LTFM)
Time Latitude Longitude Altitude Speed Heading
2026-04-28 15:45 38.75961 41.64650 4169 ft 0 kts 26°
2026-04-28 15:52 38.75960 41.64649 4169 ft 1 kts 26°
2026-04-28 15:52 38.75946 41.64641 4170 ft 3 kts 16°
2026-04-28 15:52 38.75927 41.64636 4171 ft 3 kts 359°
2026-04-28 15:52 38.75907 41.64639 4170 ft 3 kts 338°
2026-04-28 15:53 38.75891 41.64651 4169 ft 3 kts 314°
2026-04-28 15:53 38.75881 41.64666 4168 ft 1 kts 296°
2026-04-28 15:53 38.75880 41.64668 4168 ft 2 kts 296°
2026-04-28 15:56 38.75883 41.64662 4168 ft 1 kts 296°
2026-04-28 15:56 38.75881 41.64635 4168 ft 6 kts 240°
2026-04-28 15:56 38.75811 41.64580 4167 ft 16 kts 207°
2026-04-28 15:57 38.75703 41.64509 4165 ft 19 kts 204°
2026-04-28 15:57 38.75580 41.64434 4164 ft 18 kts 206°
2026-04-28 15:57 38.75555 41.64418 4164 ft 2 kts 205°
2026-04-28 15:57 38.75534 41.64406 4164 ft 5 kts 205°
2026-04-28 15:58 38.75494 41.64381 4163 ft 8 kts 205°
2026-04-28 15:58 38.75439 41.64413 4162 ft 10 kts 131°
2026-04-28 15:58 38.75422 41.64459 4163 ft 0 kts 116°
2026-04-28 15:58 38.75411 41.64485 4163 ft 11 kts 116°
2026-04-28 15:59 38.75288 41.64803 4166 ft 75 kts 116°
2026-04-28 15:59 38.74956 41.65667 4164 ft 139 kts 116°
2026-04-28 15:59 38.74463 41.66971 4295 ft 177 kts 115°
2026-04-28 15:59 38.73884 41.68361 4967 ft 178 kts 120°
2026-04-28 16:00 38.73245 41.69719 5600 ft 187 kts 123°
2026-04-28 16:00 38.72518 41.71224 5844 ft 210 kts 122°
2026-04-28 16:00 38.71719 41.72912 6082 ft 235 kts 122°
2026-04-28 16:00 38.70835 41.74792 6406 ft 258 kts 121°
2026-04-28 16:01 38.69877 41.76836 6821 ft 275 kts 121°
2026-04-28 16:01 38.68885 41.78962 7501 ft 281 kts 121°
2026-04-28 16:01 38.67880 41.81121 8236 ft 284 kts 121°
2026-04-28 16:01 38.67119 41.82759 8785 ft 286 kts 121°
2026-04-28 16:02 38.66101 41.85026 9504 ft 290 kts 115°
2026-04-28 16:02 38.65739 41.87556 10163 ft 295 kts 83°
2026-04-28 16:02 38.66475 41.89984 10814 ft 298 kts 51°
2026-04-28 16:02 38.68106 41.91602 11402 ft 304 kts 22°
2026-04-28 16:03 38.70244 41.92029 11559 ft 324 kts 352°
2026-04-28 16:03 38.72397 41.91009 11746 ft 340 kts 323°
2026-04-28 16:03 38.73934 41.88756 12209 ft 346 kts 296°
2026-04-28 16:03 38.74508 41.85733 12778 ft 349 kts 270°
2026-04-28 16:04 38.74402 41.82653 13370 ft 352 kts 266°
2026-04-28 16:04 38.74263 41.79507 13984 ft 355 kts 266°
2026-04-28 16:04 38.74121 41.76338 14586 ft 359 kts 266°
2026-04-28 16:04 38.73976 41.73134 15172 ft 362 kts 265°
2026-04-28 16:05 38.73719 41.69915 15742 ft 365 kts 263°
2026-04-28 16:05 38.73405 41.66677 16306 ft 368 kts 261°
2026-04-28 16:05 38.72827 41.63477 16841 ft 371 kts 250°
2026-04-28 16:05 38.71674 41.60524 17350 ft 373 kts 235°
2026-04-28 16:06 38.70139 41.57822 17869 ft 376 kts 233°
2026-04-28 16:06 38.68534 41.55160 18383 ft 379 kts 232°
2026-04-28 16:06 38.66892 41.52508 18881 ft 382 kts 231°
2026-04-28 16:06 38.65226 41.49836 19373 ft 385 kts 231°
2026-04-28 16:07 38.63561 41.47143 19862 ft 388 kts 232°
2026-04-28 16:07 38.62106 41.44233 20317 ft 391 kts 244°
2026-04-28 16:07 38.60940 41.37500 21178 ft 397 kts 271°
2026-04-28 16:08 38.61293 41.33999 21611 ft 400 kts 284°
2026-04-28 16:08 38.62166 41.30611 22021 ft 403 kts 289°
2026-04-28 16:08 38.63100 41.27228 22433 ft 405 kts 289°
2026-04-28 16:09 38.64977 41.20384 23225 ft 410 kts 289°
2026-04-28 16:09 38.65921 41.16934 23614 ft 412 kts 289°
2026-04-28 16:09 38.66858 41.13504 23993 ft 415 kts 289°
2026-04-28 16:10 38.68767 41.06490 24751 ft 420 kts 289°
2026-04-28 16:10 38.69728 41.02949 25117 ft 422 kts 289°
2026-04-28 16:10 38.71665 40.95809 25834 ft 427 kts 289°
2026-04-28 16:11 38.73627 40.88590 26506 ft 431 kts 289°
2026-04-28 16:11 38.75586 40.81340 27149 ft 436 kts 289°
2026-04-28 16:12 38.77570 40.73960 27776 ft 440 kts 288°
2026-04-28 16:12 38.78565 40.70244 28089 ft 442 kts 288°
2026-04-28 16:13 38.80576 40.62754 28699 ft 446 kts 289°
2026-04-28 16:13 38.81588 40.58982 28982 ft 448 kts 289°
2026-04-28 16:13 38.83622 40.51386 29544 ft 452 kts 288°
2026-04-28 16:14 38.85649 40.43766 30072 ft 456 kts 288°
2026-04-28 16:14 38.87695 40.36031 30556 ft 460 kts 288°
2026-04-28 16:15 38.89757 40.28235 31000 ft 463 kts 288°
2026-04-28 16:15 38.90791 40.24320 31241 ft 463 kts 288°
2026-04-28 16:15 38.91823 40.20405 31544 ft 462 kts 288°
2026-04-28 16:16 38.93860 40.12644 32119 ft 461 kts 288°
2026-04-28 16:16 38.94883 40.08743 32398 ft 460 kts 288°
2026-04-28 16:17 38.96923 40.00954 32939 ft 459 kts 288°
2026-04-28 16:17 38.97940 39.97070 33201 ft 459 kts 288°
2026-04-28 16:17 38.98956 39.93182 33459 ft 458 kts 288°
2026-04-28 16:17 38.99626 39.90609 33630 ft 458 kts 288°
2026-04-28 16:18 39.00972 39.85417 33970 ft 457 kts 288°
2026-04-28 16:18 39.01963 39.81592 34224 ft 457 kts 288°
2026-04-28 16:18 39.02964 39.77722 34469 ft 456 kts 288°
2026-04-28 16:18 39.03966 39.73851 34709 ft 456 kts 288°
2026-04-28 16:19 39.04964 39.69985 34951 ft 455 kts 288°
2026-04-28 16:19 39.05959 39.66121 35187 ft 455 kts 288°
2026-04-28 16:19 39.06617 39.63565 35345 ft 455 kts 288°
2026-04-28 16:19 39.07946 39.58403 35662 ft 454 kts 288°
2026-04-28 16:20 39.08941 39.54544 35892 ft 454 kts 288°
2026-04-28 16:20 39.09931 39.50693 35999 ft 452 kts 288°
2026-04-28 16:20 39.11870 39.43089 36009 ft 449 kts 288°
2026-04-28 16:21 39.13806 39.35448 36008 ft 448 kts 288°
2026-04-28 16:21 39.15834 39.27855 36008 ft 448 kts 289°
2026-04-28 16:22 39.17970 39.20308 36010 ft 448 kts 290°
2026-04-28 16:22 39.20090 39.12751 36011 ft 448 kts 289°
2026-04-28 16:23 39.22164 39.05218 36016 ft 449 kts 289°
2026-04-28 16:23 39.24242 38.97626 36019 ft 449 kts 289°
2026-04-28 16:24 39.26314 38.90030 36022 ft 449 kts 289°
2026-04-28 16:24 39.28389 38.82427 36022 ft 449 kts 289°
2026-04-28 16:25 39.30457 38.74814 36025 ft 449 kts 289°
2026-04-28 16:25 39.32519 38.67202 36026 ft 449 kts 289°
2026-04-28 16:26 39.34560 38.59631 36027 ft 449 kts 289°
2026-04-28 16:26 39.36610 38.52007 36026 ft 449 kts 289°